DW8199 Weather Reports


Display with metric or nautical units.
time (UTC)temp
F
wind
direction
speed
MPH
gust
MPH
rain 1hr
in
rain 24hr
in
rain mn
in
humidity
%
barometer
mb
20260906052017 61 0.0 0.0 0.00 0.97 0.00 93 1015.6
20260906051017 61 0.0 0.0 0.00 0.97 0.00 93 1015.6
20260906050016 61 0.0 0.0 0.00 0.97 0.00 93 1015.6
20260906045018 61 0.0 0.0 0.00 0.97 0.00 93 1015.6
20260906044017 61 0.0 0.0 0.00 0.97 0.00 93 1015.4
20260906043017 61 0.0 0.0 0.00 0.97 0.00 93 1015.5
20260906042016 62 0.0 0.0 0.00 0.97 0.00 93 1015.5
20260906041017 62 0.0 0.0 0.00 0.97 0.00 93 1015.4
20260906040017 62 0.0 0.0 0.00 0.97 0.97 93 1015.4
20260906035016 62 0.0 0.0 0.00 0.97 0.97 93 1015.4
20260906034016 63 0.0 0.0 0.00 0.97 0.97 93 1015.2
20260906033016 63 0.0 0.0 0.00 0.97 0.97 93 1015.3
20260906032016 63 0.0 0.0 0.00 0.97 0.97 93 1015.4
20260906031017 64 0.0 0.0 0.00 0.97 0.97 93 1015.3
20260906030016 64 0.0 0.0 0.00 0.97 0.97 93 1015.3
20260906025016 64 0.0 0.0 0.00 0.97 0.97 93 1015.3
20260906024036 65 0.0 0.0 0.00 0.97 0.97 93 1015.4
20260906023016 65 0.0 0.0 0.00 0.97 0.97 93 1015.2
20260906022016 66 0.0 0.0 0.00 0.97 0.97 93 1015.2
20260906021016 66 0.0 0.0 0.00 0.97 0.97 93 1015.1
20260906020016 67 0.0 0.0 0.00 0.97 0.97 93 1014.9
20260906015016 68 0.0 0.0 0.00 0.97 0.97 93 1014.9
20260906014016 69 0.0 0.0 0.00 0.97 0.97 92 1014.9
20260906013016 69 116 0.0 1.0 0.00 0.97 0.97 92 1014.8
20260906012016 70 103 0.0 2.0 0.00 0.97 0.97 92 1014.8
20260906011036 71 0.0 0.0 0.00 0.97 0.97 92 1014.7
20260906010016 72 0.0 0.0 0.00 0.97 0.97 92 1014.7
20260906005016 72 0.0 0.0 0.00 0.97 0.97 92 1014.5
20260906004016 72 0.0 0.0 0.00 0.97 0.97 92 1014.4
20260906003016 72 0.0 0.0 0.00 0.97 0.97 92 1014.3
20260906002017 72 0.0 0.0 0.00 0.97 0.97 91 1014.2
20260906001016 72 0.0 0.0 0.00 0.97 0.97 91 1014.1
20260906000016 72 0.0 0.0 0.00 0.97 0.97 91 1014.1
20260905235015 73 0.0 0.0 0.00 0.97 0.97 91 1014.0
20260905234016 73 0.0 0.0 0.00 0.97 0.97 91 1014.0
20260905233016 73 0.0 0.0 0.02 0.97 0.97 91 1013.9
20260905232017 73 0.0 0.0 0.04 0.97 0.97 91 1013.8
20260905231016 73 0.0 0.0 0.05 0.97 0.97 91 1013.8
20260905230016 73 0.0 0.0 0.08 0.97 0.97 91 1013.8
20260905225016 73 0.0 0.0 0.28 0.97 0.97 90 1013.8
20260905224016 74 202 0.0 1.0 0.30 0.97 0.97 90 1013.8
20260905223016 74 0.0 0.0 0.28 0.95 0.95 90 1013.7
20260905222036 74 0.0 0.0 0.26 0.93 0.93 90 1013.5
20260905221016 74 0.0 0.0 0.25 0.92 0.92 90 1013.5
20260905220016 75 0.0 1.0 0.22 0.89 0.89 89 1013.6
20260905215036 76 102 0.0 2.0 0.02 0.69 0.69 89 1013.4
20260905214016 76 212 0.0 1.0 0.00 0.67 0.67 88 1013.3
20260905213016 75 212 0.0 1.0 0.00 0.67 0.67 89 1013.4
20260905212035 75 0.0 0.0 0.00 0.67 0.67 89 1013.4
20260905211016 75 0.0 1.0 0.00 0.67 0.67 88 1013.4
20260905210016 75 220 0.0 2.0 0.00 0.67 0.67 89 1013.4
20260905205036 75 218 0.0 2.0 0.37 0.67 0.67 89 1013.5
20260905204015 74 239 0.0 1.0 0.62 0.67 0.67 90 1013.4
20260905203016 74 223 0.0 1.0 0.62 0.67 0.67 91 1013.4
20260905202016 73 0.0 0.0 0.62 0.67 0.67 90 1013.4
20260905201016 73 0.0 0.0 0.62 0.67 0.67 89 1013.6
20260905200015 74 89 0.0 3.0 0.62 0.67 0.67 87 1013.8
20260905195015 77 253 1.0 9.0 0.25 0.30 0.30 83 1014.1
20260905194015 79 268 1.0 5.0 0.00 0.05 0.05 79 1013.6
20260905193016 80 0.0 4.0 0.00 0.05 0.05 78 1013.5
20260905192015 79 257 1.0 3.0 0.00 0.05 0.05 78 1013.6
20260905191017 78 0.0 0.0 0.00 0.05 0.05 86 1013.7
20260905190015 77 0.0 0.0 0.00 0.05 0.05 87 1013.9
20260905185035 77 0.0 0.0 0.00 0.05 0.05 86 1014.0
20260905184015 78 0.0 0.0 0.00 0.05 0.05 85 1014.1
20260905183036 78 0.0 0.0 0.00 0.05 0.05 85 1014.0
20260905182016 78 0.0 0.0 0.00 0.05 0.05 83 1014.1
20260905181017 79 0.0 0.0 0.00 0.05 0.05 82 1014.2
20260905180015 80 0.0 0.0 0.00 0.05 0.05 80 1014.3
20260905175015 81 286 0.0 2.0 0.00 0.05 0.05 77 1014.2
20260905174016 81 105 1.0 2.0 0.00 0.05 0.05 73 1014.3
20260905173015 82 209 1.0 4.0 0.00 0.05 0.05 73 1014.4
20260905172015 81 214 0.0 3.0 0.00 0.07 0.05 78 1014.4
20260905171036 80 119 0.0 2.0 0.00 0.07 0.05 79 1014.5
20260905170015 79 103 1.0 3.0 0.00 0.07 0.05 82 1014.5
20260905165016 78 113 0.0 2.0 0.00 0.07 0.05 84 1014.7
20260905164015 78 216 0.0 2.0 0.00 0.07 0.05 83 1014.8
20260905163036 77 276 1.0 3.0 0.00 0.07 0.05 82 1014.7
20260905162016 77 277 2.0 4.0 0.00 0.07 0.05 83 1014.8
20260905161015 76 277 1.0 3.0 0.00 0.07 0.05 85 1014.9
20260905160016 75 278 0.0 1.0 0.00 0.07 0.05 87 1015.1
20260905155016 75 259 0.0 2.0 0.00 0.07 0.05 86 1015.1
20260905154015 75 123 0.0 1.0 0.00 0.07 0.05 88 1015.1
20260905153015 75 0.0 0.0 0.00 0.07 0.05 89 1015.1
20260905152015 74 89 0.0 1.0 0.00 0.07 0.05 88 1015.2
20260905151035 74 242 0.0 1.0 0.00 0.07 0.05 90 1015.0
20260905150015 74 59 0.0 1.0 0.00 0.07 0.05 91 1014.9
20260905145016 73 158 0.0 1.0 0.00 0.07 0.05 91 1014.8
20260905144015 73 0.0 0.0 0.00 0.07 0.05 91 1014.7
20260905143015 73 201 0.0 2.0 0.00 0.07 0.05 91 1014.8
20260905142015 73 116 0.0 1.0 0.00 0.07 0.05 92 1014.7
20260905141015 73 128 0.0 1.0 0.00 0.07 0.05 92 1014.6
20260905140036 72 275 0.0 2.0 0.00 0.07 0.05 92 1014.6
20260905135035 72 250 0.0 2.0 0.00 0.07 0.05 92 1014.6
20260905134016 72 238 0.0 1.0 0.00 0.07 0.05 93 1014.7
20260905133015 72 244 0.0 2.0 0.00 0.07 0.05 93 1014.6
20260905132016 72 0.0 0.0 0.00 0.07 0.05 93 1014.7
20260905131015 72 0.0 0.0 0.00 0.07 0.05 93 1014.8
20260905130015 71 0.0 0.0 0.00 0.07 0.05 93 1014.8
20260905125035 71 0.0 0.0 0.00 0.07 0.05 93 1014.9
20260905124015 71 0.0 0.0 0.00 0.07 0.05 93 1014.9
20260905123015 71 0.0 0.0 0.00 0.07 0.05 93 1015.0
20260905122035 71 0.0 0.0 0.00 0.07 0.05 93 1014.8
20260905121015 71 0.0 1.0 0.01 0.07 0.05 93 1014.8
20260905120015 71 152 0.0 2.0 0.01 0.07 0.05 92 1014.7
20260905115035 71 321 0.0 1.0 0.01 0.07 0.05 92 1014.8
20260905114035 71 21 0.0 1.0 0.01 0.07 0.05 92 1014.4
20260905113015 71 16 0.0 1.0 0.01 0.07 0.05 92 1014.5
20260905112015 71 0.0 0.0 0.01 0.07 0.05 92 1014.6
20260905111015 71 0.0 0.0 0.00 0.06 0.04 92 1014.4
20260905110015 71 0.0 0.0 0.00 0.06 0.04 92 1014.0
20260905105015 71 0.0 1.0 0.00 0.06 0.04 92 1014.3
20260905104015 71 0.0 1.0 0.01 0.06 0.04 92 1014.9
20260905103015 71 0.0 1.0 0.01 0.06 0.04 92 1015.0
20260905102015 71 280 1.0 4.0 0.01 0.06 0.04 92 1015.3
20260905101015 71 283 2.0 4.0 0.01 0.06 0.04 92 1015.3
20260905100015 71 0.0 0.0 0.01 0.06 0.04 92 1015.0
20260905095015 71 0.0 0.0 0.01 0.06 0.04 92 1014.8
20260905094015 71 0.0 0.0 0.00 0.05 0.03 92 1014.4
20260905093035 71 0.0 0.0 0.00 0.05 0.03 92 1014.0
20260905092015 71 0.0 0.0 0.00 0.05 0.03 92 1014.2
20260905091015 71 0.0 0.0 0.00 0.05 0.03 92 1014.0
20260905090015 71 0.0 0.0 0.00 0.05 0.03 92 1013.7
20260905085015 71 0.0 0.0 0.00 0.05 0.03 92 1013.6
20260905084015 71 0.0 0.0 0.00 0.05 0.03 92 1013.8
20260905083016 71 0.0 0.0 0.00 0.05 0.03 92 1013.4
20260905082015 71 0.0 0.0 0.00 0.05 0.03 92 1013.3
20260905081015 71 0.0 0.0 0.00 0.05 0.03 92 1013.5
20260905080015 70 0.0 0.0 0.00 0.06 0.03 92 1013.7
20260905075015 70 0.0 0.0 0.00 0.07 0.03 92 1014.1
20260905074015 70 0.0 0.0 0.00 0.08 0.03 92 1014.2
20260905073035 70 0.0 0.0 0.00 0.08 0.03 92 1014.0
20260905072015 70 0.0 0.0 0.00 0.08 0.03 92 1014.0
20260905071035 71 0.0 0.0 0.03 0.09 0.03 92 1014.1
20260905070015 71 0.0 1.0 0.03 0.34 0.03 92 1014.1
20260905065015 71 148 0.0 1.0 0.03 0.39 0.03 92 1014.4
20260905064015 71 186 0.0 1.0 0.03 0.39 0.03 92 1014.6
20260905063015 71 0.0 1.0 0.03 0.39 0.03 92 1014.6
20260905062015 71 91 0.0 2.0 0.03 0.39 0.03 92 1014.8
20260905061016 71 0.0 0.0 0.00 0.36 0.00 92 1015.1
20260905060015 70 0.0 0.0 0.00 0.36 0.00 92 1015.1
20260905055015 70 0.0 0.0 0.00 0.36 0.00 92 1015.1
20260905054015 70 0.0 0.0 0.00 0.36 0.00 92 1015.3
20260905053015 70 0.0 0.0 0.00 0.36 0.00 92 1015.4